Location: Unspecified
(0.0000°N, 0.0000°E)
Time: 10:45:15
(UTC+00:00)

Vanguard 3 - Visible Passes

Search period start: 18 July 2018 00:00
Search period end: 28 July 2018 00:00
Orbit: 508 x 3264 km, 33.3° (Epoch: 17 July)

Date Brightness Start Highest point End Pass type
(mag) Time Alt. Az. Time Alt. Az. Time Alt. Az.
18 Jul 9.7 03:29:05 12° SE 03:29:05 12° SE 03:29:46 10° SE visible
18 Jul 9.4 05:35:21 10° SW 05:38:02 12° SSW 05:41:14 10° S visible
19 Jul 9.3 04:24:33 15° S 04:24:33 15° S 04:27:08 10° SSE visible
27 Jul 10.2 21:38:02 10° NNW 21:38:47 12° NNW 21:38:47 12° NNW visible
